Evansville, IN

3:36 AM CDT on May 24, 2018 (GMT -0500)
Evansville Regional

Weather History for KEVV - December, 2014

Change the Weather History Date:

Sunday, December 14, 2014

  Actual Average Record
Temperature  
Mean Temperature 47 °F 36 °F  
Max Temperature 49 °F 44 °F 72 °F (1995)
Min Temperature 44 °F 27 °F 0 °F (1901)
Degree Days  
Heating Degree Days 18 29  
Month to date heating degree days 343 384  
Since 1 July heating degree days 1346 1245  
Cooling Degree Days 0 0  
Month to date cooling degree days 0 0  
Year to date cooling degree days 1477 1397  
Moisture  
Dew Point 44 °F    
Average Humidity 88    
Maximum Humidity 93    
Minimum Humidity 83    
Precipitation  
Precipitation 0.00 in 0.12 in 1.12 in (1951)
Month to date precipitation 1.95 1.82  
Year to date precipitation 45.73 43.37  
Snow  
Snow 0.00 in 0.20 in 4.80 in (1973)
Month to date snowfall 0.0 1.1  
Since 1 July snowfall 2.4 1.4  
Snow Depth 0.00 in    
Sea Level Pressure  
Sea Level Pressure 30.16 in    
Wind  
Wind Speed 4 mph (SSE)    
Max Wind Speed 8 mph    
Max Gust Speed 12 mph    
Visibility 3 miles    
Events Fog    
T = Trace of Precipitation, MM = Missing Value Source: NWS Daily Summary

Daily Weather History Graph

Daily Weather History Graph

Search for Another Location

Airport or City:

Astronomy

Dec. 14, 2014 Rise Set
Actual Time 6:58 AM CST 4:31 PM CST
Civil Twilight 6:28 AM CST 5:00 PM CST
Nautical Twilight 5:55 AM CST 5:33 PM CST
Astronomical Twilight 5:23 AM CST 6:05 PM CST
Moon No Moon Rise 11:55 AM CST (12/14)
Length of Visible Light 10h 31m
Length of Day
9h 32m
Waning Gibbous, 48% of the Moon is Illuminated
Dec 14
Waning Gibbous
Dec 21
New
Dec 28
First Quarter
Jan 4
Full
Jan 13
Last Quarter

Hourly Weather History & Observations

Time (CST) Temp. Windchill Dew Point Humidity Pressure Visibility Wind Dir Wind Speed Gust Speed Precip Events Conditions
12:54 AM 45.0 °F 42.6 °F 39.0 °F 80% 30.20 in 8.0 mi SSW 4.6 mph - N/A   Overcast
1:51 AM 44.6 °F 42.2 °F 39.2 °F 81% 30.19 in 8.0 mi SW 4.6 mph - N/A   Overcast
1:54 AM 45.0 °F 42.6 °F 39.0 °F 80% 30.20 in 7.0 mi SSW 4.6 mph - N/A   Overcast
2:20 AM 44.1 °F 41.5 °F 39.9 °F 85% 30.19 in 7.0 mi SSW 4.6 mph - N/A   Overcast
2:54 AM 44.1 °F 41.5 °F 39.9 °F 85% 30.20 in 6.0 mi SW 4.6 mph - N/A   Overcast
3:01 AM 44.1 °F 41.5 °F 41.0 °F 89% 30.19 in 6.0 mi SW 4.6 mph - N/A   Overcast
3:32 AM 44.1 °F 41.5 °F 41.0 °F 89% 30.18 in 5.0 mi SSW 4.6 mph - N/A   Overcast
3:54 AM 44.1 °F 42.5 °F 41.0 °F 89% 30.19 in 4.0 mi SW 3.5 mph - N/A   Overcast
4:42 AM 44.1 °F - 42.1 °F 93% 30.19 in 2.5 mi Calm Calm - N/A   Overcast
4:50 AM 44.6 °F - 42.8 °F 93% 30.19 in 3.0 mi Calm Calm - N/A   Overcast
4:54 AM 44.1 °F - 42.1 °F 93% 30.20 in 3.0 mi Calm Calm - N/A   Overcast
5:02 AM 44.1 °F - 42.1 °F 93% 30.19 in 2.5 mi Calm Calm - N/A   Overcast
5:09 AM 44.1 °F - 42.1 °F 93% 30.19 in 3.0 mi Calm Calm - N/A   Overcast
5:35 AM 44.1 °F - 42.1 °F 93% 30.19 in 2.5 mi Calm Calm - N/A   Overcast
5:44 AM 44.1 °F - 42.1 °F 93% 30.20 in 3.0 mi Calm Calm - N/A   Overcast
5:54 AM 44.1 °F - 42.1 °F 93% 30.21 in 2.5 mi Calm Calm - N/A   Overcast
6:10 AM 44.1 °F - 42.1 °F 93% 30.20 in 1.5 mi Calm Calm - N/A   Overcast
6:22 AM 44.1 °F - 43.0 °F 96% 30.20 in 1.2 mi Calm Calm - N/A   Overcast
6:49 AM 44.6 °F - 42.8 °F 93% 30.20 in 1.0 mi Calm Calm - N/A   Overcast
6:54 AM 44.1 °F - 42.1 °F 93% 30.20 in 1.0 mi Calm Calm - N/A   Overcast
7:12 AM 44.1 °F - 42.1 °F 93% 30.20 in 0.5 mi Calm Calm - N/A Fog Fog
7:54 AM 44.1 °F 42.5 °F 43.0 °F 96% 30.21 in 1.0 mi South 3.5 mph - N/A   Overcast
8:19 AM 45.0 °F 41.8 °F 43.0 °F 93% 30.21 in 0.8 mi SSW 5.8 mph - N/A   Overcast
8:54 AM 45.0 °F 43.5 °F 43.0 °F 93% 30.22 in 1.0 mi South 3.5 mph - N/A   Overcast
9:54 AM 46.0 °F 43.9 °F 44.1 °F 93% 30.22 in 1.0 mi South 4.6 mph - N/A   Overcast
10:38 AM 46.0 °F 43.9 °F 45.0 °F 96% 30.21 in 1.5 mi South 4.6 mph - N/A   Overcast
10:54 AM 46.9 °F - 45.0 °F 93% 30.21 in 1.8 mi South 3.5 mph - N/A   Overcast
11:33 AM 46.9 °F - 45.0 °F 93% 30.19 in 2.0 mi South 4.6 mph - N/A   Overcast
11:54 AM 46.9 °F - 45.0 °F 93% 30.19 in 2.0 mi Calm Calm - N/A   Overcast
12:26 PM 48.0 °F - 46.0 °F 93% 30.17 in 1.8 mi SE 4.6 mph - N/A   Overcast
12:54 PM 48.0 °F - 46.0 °F 93% 30.16 in 1.8 mi SE 5.8 mph - N/A   Overcast
1:24 PM 48.9 °F - 46.0 °F 90% 30.15 in 2.0 mi SSE 4.6 mph - N/A   Overcast
1:54 PM 48.9 °F - 46.0 °F 90% 30.14 in 2.5 mi ESE 3.5 mph - N/A   Overcast
2:04 PM 48.9 °F - 46.0 °F 90% 30.14 in 2.5 mi ESE 5.8 mph - N/A   Overcast
2:51 PM 48.2 °F - 46.4 °F 93% 30.13 in 2.5 mi ESE 6.9 mph - N/A   Overcast
2:54 PM 48.9 °F - 46.0 °F 90% 30.13 in 2.5 mi SE 8.1 mph - N/A   Overcast
3:19 PM 48.9 °F - 46.0 °F 90% 30.13 in 2.5 mi ESE 4.6 mph - N/A   Overcast
3:50 PM 48.2 °F - 46.4 °F 93% 30.12 in 2.0 mi SE 6.9 mph - N/A   Overcast
3:54 PM 48.9 °F - 46.0 °F 90% 30.13 in 2.5 mi SE 6.9 mph - N/A   Overcast
4:11 PM 48.9 °F - 46.0 °F 90% 30.12 in 2.5 mi ESE 5.8 mph - N/A   Overcast
4:39 PM 48.9 °F - 46.0 °F 90% 30.12 in 3.0 mi SE 6.9 mph - N/A   Overcast
4:54 PM 48.9 °F - 46.0 °F 90% 30.13 in 1.5 mi SSE 4.6 mph - N/A   Overcast
5:01 PM 48.9 °F - 46.0 °F 90% 30.12 in 2.0 mi SSE 4.6 mph - N/A   Overcast
5:11 PM 48.9 °F - 46.0 °F 90% 30.12 in 2.0 mi SE 6.9 mph - N/A   Overcast
5:54 PM 48.0 °F - 46.9 °F 96% 30.12 in 2.0 mi SE 5.8 mph - N/A   Overcast
6:54 PM 48.9 °F - 46.0 °F 90% 30.12 in 2.5 mi SSE 4.6 mph - N/A   Overcast
7:54 PM 48.0 °F - 46.0 °F 93% 30.12 in 2.0 mi SE 4.6 mph - N/A   Overcast
8:22 PM 48.0 °F - 46.0 °F 93% 30.11 in 3.0 mi SSE 3.5 mph - N/A   Overcast
8:50 PM 48.2 °F - 46.4 °F 93% 30.11 in 4.0 mi SE 4.6 mph - N/A   Overcast
8:54 PM 48.9 °F - 46.0 °F 90% 30.12 in 4.0 mi SSE 4.6 mph - N/A   Overcast
9:54 PM 48.9 °F - 46.0 °F 90% 30.11 in 5.0 mi SE 3.5 mph - N/A   Overcast
10:54 PM 48.9 °F - 45.0 °F 86% 30.10 in 6.0 mi SSE 4.6 mph - N/A   Overcast
11:54 PM 48.9 °F - 45.0 °F 86% 30.09 in 5.0 mi SE 3.5 mph - N/A   Overcast